If you wish to contribute or participate in the discussions about articles you are invited to join SKYbrary as a registered user

 Actions

Komatsu Airport

From SKYbrary Wiki

RJNK
Airport
ICAO: RJNK – IATA: KMQ
Summary
Name Komatsu Airport
Region Asia and Pacific
Territory Japan JP.gif
Location Komatsu, Ishikawa Prefecture
Serving Komatsu
Elevation 6.706 m
22 ft6.706 m
Coordinates 36° 24' 5.95" N, 136° 24' 48.08" E
Runways
Designator Length Width Surface ROPS
6/24 2701 m8,861.549 ft
46 m150.919 ft
PEM yes/yes
06T/24T 2705 m8,874.672 ft
45 m147.638 ft
ASP /


METAR
Observation RJNK 151700Z 16003KT 130V200 9999 FEW050 M00/M02 Q1028
Station Komatsu Ab
Date/Time 15 December 2019 17:00:00
Wind direction 160°
Wind speed 03 kts
Lowest cloud amount few clouds
Temperature
Dew point
Humidity 86%
QNH 1028 hPa
Weather condition n/a

International airport located 4.2 km2.268 nm
4,200 m
13,779.528 ft
west southwest of the city of Komatsu, Ishikawa Prefecture, Japan.

Climatology

Humid Sub-tropical climate (Köppen climate classification Cfa)

Maps

Terrain

Loading map...

Airport Layout

Loading map...


Accidents & Serious Incidents at or in vicinity of RJNK

None on SKYbrary